Weather History for Beaver Island, MI

Change the Weather History Date:

Friday, May 24, 2013

  Actual Average Record
Temperature  
Mean Temperature 41 °F -  
Max Temperature 50 °F 64 °F 84 °F (1972)
Min Temperature 32 °F 43 °F 23 °F (1956)
Degree Days  
Heating Degree Days 24    
Moisture  
Dew Point 32 °F    
Average Humidity 69    
Maximum Humidity 94    
Minimum Humidity 50    
Precipitation  
Precipitation 0.00 in - - ()
Sea Level Pressure  
Sea Level Pressure 30.36 in    
Wind  
Wind Speed 6 mph (NW)    
Max Wind Speed 13 mph    
Max Gust Speed 17 mph    
Visibility 10 miles    
Events      
Averages and records for this station are not official NWS values.
T = Trace of Precipitation, MM = Missing Value Source: NWS Daily Summary

Daily Weather History Graph

Daily Weather History Graph

Search for Another Location

Airport:

Trip Planner

Search our weather history database for the weather conditions in past years. The results will help you decide how hot, cold, wet, or windy it might be!

Date:

Astronomy

May. 24, 2013 Rise Set
Actual Time 6:01 AM EDT 9:17 PM EDT
Civil Twilight 5:25 AM EDT 9:53 PM EDT
Nautical Twilight 4:38 AM EDT 10:40 PM EDT
Astronomical Twilight 3:40 AM EDT 11:39 PM EDT
Moon 8:56 PM EDT (5/24) 5:36 AM EDT (5/24)
Length of Visible Light 16h 27m
Length of Day
15h 15m
Full, 100% of the Moon is Illuminated
May 24
Full
May 25
Full
May 31
Last Quarter
Jun 8
New
Jun 16
First Quarter

Hourly Weather History & Observations

Time (EDT) Temp. Windchill Dew Point Humidity Pressure Visibility Wind Dir Wind Speed Gust Speed Precip Events Conditions
12:15 AM 40.1 °F 35.3 °F 32.0 °F 73% 30.28 in 10.0 mi NNW 6.9 mph - N/A   Clear
12:35 AM 40.1 °F 35.3 °F 32.0 °F 73% 30.28 in 10.0 mi North 6.9 mph - N/A   Clear
12:55 AM 39.6 °F 34.7 °F 32.0 °F 74% 30.28 in 10.0 mi North 6.9 mph - N/A   Clear
1:15 AM 39.4 °F 36.1 °F 32.0 °F 75% 30.29 in 10.0 mi North 4.6 mph - N/A   Clear
1:35 AM 38.8 °F 35.4 °F 32.0 °F 76% 30.30 in 10.0 mi North 4.6 mph - N/A   Clear
1:55 AM 38.5 °F 35.0 °F 32.0 °F 78% 30.30 in 10.0 mi North 4.6 mph - N/A   Clear
2:15 AM 38.3 °F 34.8 °F 32.0 °F 78% 30.30 in 10.0 mi North 4.6 mph - N/A   Clear
2:35 AM 37.4 °F 33.8 °F 32.0 °F 81% 30.30 in 10.0 mi North 4.6 mph - N/A   Clear
2:55 AM 37.2 °F 34.7 °F 32.0 °F 81% 30.31 in 10.0 mi North 3.5 mph - N/A   Clear
3:14 AM 36.7 °F - 31.6 °F 82% 30.31 in 10.0 mi Calm Calm - N/A   Clear
3:35 AM 34.5 °F 31.6 °F 30.9 °F 87% 30.31 in 10.0 mi North 3.5 mph - N/A   Clear
3:54 AM 35.6 °F 32.8 °F 31.1 °F 84% 30.31 in 10.0 mi North 3.5 mph - N/A   Clear
4:15 AM 35.6 °F 32.8 °F 30.7 °F 82% 30.32 in 10.0 mi North 3.5 mph - N/A   Clear
4:35 AM 34.5 °F 31.6 °F 30.4 °F 85% 30.33 in 10.0 mi North 3.5 mph - N/A   Clear
4:54 AM 35.1 °F 32.2 °F 30.6 °F 84% 30.33 in 10.0 mi North 3.5 mph - N/A   Clear
5:15 AM 34.2 °F 31.2 °F 30.4 °F 86% 30.33 in 10.0 mi NNE 3.5 mph - N/A   Clear
5:35 AM 34.2 °F - 30.0 °F 85% 30.34 in 10.0 mi Calm Calm - N/A   Clear
5:54 AM 32.2 °F 28.9 °F 29.1 °F 88% 30.35 in 10.0 mi North 3.5 mph - N/A   Clear
6:15 AM 34.0 °F - 30.2 °F 86% 30.35 in 10.0 mi Calm Calm - N/A   Clear
6:35 AM 34.7 °F - 30.2 °F 84% 30.36 in 10.0 mi Calm Calm - N/A   Clear
6:55 AM 36.7 °F 34.1 °F 30.7 °F 79% 30.37 in 10.0 mi North 3.5 mph - N/A   Clear
7:15 AM 38.1 °F 34.6 °F 30.9 °F 75% 30.38 in 10.0 mi North 4.6 mph - N/A   Clear
7:35 AM 39.6 °F 36.3 °F 31.5 °F 73% 30.38 in 10.0 mi North 4.6 mph - N/A   Clear
7:55 AM 40.5 °F 35.1 °F 30.6 °F 68% 30.39 in 10.0 mi North 8.1 mph - N/A   Clear
8:15 AM 41.2 °F 36.6 °F 30.7 °F 66% 30.40 in 10.0 mi North 6.9 mph - N/A   Clear
8:34 AM 41.4 °F 36.8 °F 31.1 °F 67% 30.40 in 10.0 mi North 6.9 mph - N/A   Clear
8:55 AM 42.6 °F 38.4 °F 30.9 °F 63% 30.40 in 10.0 mi NNE 6.9 mph - N/A   Clear
9:15 AM 42.6 °F 37.2 °F 30.2 °F 61% 30.40 in 10.0 mi North 9.2 mph - N/A   Clear
9:34 AM 43.0 °F 37.2 °F 29.3 °F 59% 30.41 in 10.0 mi North 10.4 mph - N/A   Clear
9:55 AM 43.5 °F 37.5 °F 30.0 °F 59% 30.40 in 10.0 mi North 11.5 mph 16.1 mph N/A   Clear
10:14 AM 43.9 °F 39.3 °F 30.6 °F 59% 30.40 in 10.0 mi North 8.1 mph 16.1 mph N/A   Clear
10:35 AM 44.1 °F 39.0 °F 31.1 °F 60% 30.41 in 10.0 mi NNE 9.2 mph - N/A   Clear
10:54 AM 45.7 °F 42.0 °F 32.0 °F 59% 30.40 in 10.0 mi NNW 6.9 mph - N/A   Clear
11:15 AM 46.2 °F 42.7 °F 32.0 °F 58% 30.40 in 10.0 mi NW 6.9 mph - N/A   Clear
11:35 AM 48.0 °F - 31.3 °F 52% 30.40 in 10.0 mi NE 4.6 mph - N/A   Clear
11:54 AM 47.8 °F - 31.8 °F 54% 30.40 in 10.0 mi NNE 11.5 mph 17.3 mph N/A   Clear
12:15 PM 48.4 °F - 32.2 °F 54% 30.40 in 10.0 mi WNW 10.4 mph - N/A   Clear
12:35 PM 48.2 °F - 31.6 °F 53% 30.40 in 10.0 mi WNW 8.1 mph - N/A   Clear
12:55 PM 48.7 °F - 31.8 °F 52% 30.40 in 10.0 mi West 4.6 mph - N/A   Clear
1:15 PM 49.1 °F - 31.3 °F 50% 30.40 in 10.0 mi WSW 9.2 mph - N/A   Clear
1:35 PM 49.5 °F - 33.8 °F 55% 30.40 in 10.0 mi WSW 9.2 mph - N/A   Clear
1:55 PM 50.7 °F - 35.8 °F 57% 30.40 in 10.0 mi West 9.2 mph - N/A   Clear
2:15 PM 49.3 °F - 33.4 °F 54% 30.40 in 10.0 mi WSW 10.4 mph - N/A   Clear
2:34 PM 50.9 °F - 34.3 °F 53% 30.40 in 10.0 mi West 11.5 mph - N/A   Clear
2:55 PM 49.1 °F - 33.6 °F 55% 30.39 in 10.0 mi WSW 8.1 mph - N/A   Clear
3:15 PM 50.2 °F - 34.3 °F 55% 30.39 in 10.0 mi WSW 10.4 mph - N/A   Clear
3:35 PM 50.0 °F - 34.2 °F 55% 30.39 in 10.0 mi WSW 11.5 mph - N/A   Clear
3:55 PM 48.2 °F - 33.4 °F 57% 30.39 in 10.0 mi WSW 11.5 mph - N/A   Clear
4:15 PM 49.1 °F - 33.6 °F 55% 30.39 in 10.0 mi WSW 12.7 mph - N/A   Clear
4:35 PM 48.4 °F - 32.7 °F 55% 30.38 in 10.0 mi WSW 12.7 mph 17.3 mph N/A   Clear
4:55 PM 47.8 °F - 32.5 °F 55% 30.38 in 10.0 mi WSW 10.4 mph - N/A   Clear
5:14 PM 48.6 °F - 32.7 °F 54% 30.36 in 10.0 mi SW 10.4 mph - N/A   Clear
5:35 PM 48.2 °F - 32.9 °F 55% 30.36 in 10.0 mi SW 10.4 mph - N/A   Clear
5:55 PM 48.6 °F - 33.1 °F 55% 30.36 in 10.0 mi SW 8.1 mph - N/A   Clear
6:15 PM 48.4 °F - 32.9 °F 55% 30.36 in 10.0 mi WSW 6.9 mph - N/A   Clear
6:35 PM 48.2 °F - 33.8 °F 58% 30.35 in 10.0 mi WSW 8.1 mph - N/A   Clear
6:55 PM 47.3 °F - 33.8 °F 59% 30.35 in 10.0 mi West 6.9 mph - N/A   Clear
7:15 PM 46.8 °F - 33.1 °F 59% 30.35 in 10.0 mi SW 6.9 mph - N/A   Clear
7:35 PM 46.6 °F - 33.3 °F 60% 30.34 in 10.0 mi SW 5.8 mph - N/A   Clear
7:54 PM 45.1 °F 41.4 °F 32.4 °F 61% 30.35 in 10.0 mi WSW 6.9 mph - N/A   Clear
8:15 PM 43.0 °F 40.3 °F 32.2 °F 66% 30.34 in 10.0 mi WSW 4.6 mph - N/A   Clear
8:35 PM 42.8 °F - 32.9 °F 68% 30.34 in 10.0 mi Calm Calm - N/A   Clear
8:55 PM 41.7 °F - 33.1 °F 71% 30.33 in 10.0 mi Calm Calm - N/A   Clear
9:15 PM 39.7 °F - 33.1 °F 77% 30.33 in 10.0 mi Calm Calm - N/A   Clear
9:35 PM 37.6 °F 33.1 °F 32.5 °F 82% 30.34 in 10.0 mi West 5.8 mph - N/A   Clear
9:55 PM 39.2 °F 37.0 °F 33.1 °F 79% 30.35 in 10.0 mi West 3.5 mph - N/A   Clear
10:15 PM 37.8 °F - 33.1 °F 83% 30.36 in 10.0 mi Calm Calm - N/A   Clear
10:34 PM 37.0 °F - 32.9 °F 85% 30.36 in 10.0 mi Calm Calm - N/A   Clear
10:55 PM 36.5 °F - 32.9 °F 87% 30.37 in 10.0 mi Calm Calm - N/A   Clear
11:15 PM 35.2 °F - 32.4 °F 89% 30.36 in 10.0 mi Calm Calm - N/A   Clear
11:35 PM 33.6 °F - 31.8 °F 93% 30.37 in 10.0 mi Calm Calm - N/A   Clear
11:55 PM 33.3 °F - 31.6 °F 94% 30.38 in 10.0 mi Calm Calm - N/A   Clear